Year,Month,Day,Hour,Minute,Value (Times are PST for temperature in C)
2015,07,29,00,00,14.70
2015,07,29,00,01,14.60
2015,07,29,00,02,14.60
2015,07,29,00,03,14.50
2015,07,29,00,04,14.50
2015,07,29,00,05,14.40
2015,07,29,00,06,14.40
2015,07,29,00,07,14.40
2015,07,29,00,08,14.30
2015,07,29,00,09,14.30
2015,07,29,00,10,14.30
2015,07,29,00,11,14.30
2015,07,29,00,12,14.20
2015,07,29,00,13,14.20
2015,07,29,00,14,14.20
2015,07,29,00,15,14.20
2015,07,29,00,16,14.20
2015,07,29,00,17,14.20
2015,07,29,00,18,14.20
2015,07,29,00,19,14.20
2015,07,29,00,20,14.20
2015,07,29,00,21,14.20
2015,07,29,00,22,14.20
2015,07,29,00,23,14.20
2015,07,29,00,24,14.20
2015,07,29,00,25,14.20
2015,07,29,00,26,14.20
2015,07,29,00,27,14.20
2015,07,29,00,28,14.20
2015,07,29,00,29,14.20
2015,07,29,00,30,14.20
2015,07,29,00,31,14.20
2015,07,29,00,32,14.10
2015,07,29,00,33,14.10
2015,07,29,00,34,14.10
2015,07,29,00,35,14.10
2015,07,29,00,36,14.10
2015,07,29,00,37,14.10
2015,07,29,00,38,14.10
2015,07,29,00,39,14.10
2015,07,29,00,40,14.10
2015,07,29,00,41,14.00
2015,07,29,00,42,14.00
2015,07,29,00,43,14.00
2015,07,29,00,44,13.90
2015,07,29,00,45,13.90
2015,07,29,00,46,13.90
2015,07,29,00,47,13.90
2015,07,29,00,48,13.90
2015,07,29,00,49,13.80
2015,07,29,00,50,13.80
2015,07,29,00,51,13.80
2015,07,29,00,52,13.80
2015,07,29,00,53,13.70
2015,07,29,00,54,13.70
2015,07,29,00,55,13.70
2015,07,29,00,56,13.70
2015,07,29,00,57,13.70
2015,07,29,00,58,13.70
2015,07,29,00,59,13.60
2015,07,29,01,00,13.60
2015,07,29,01,01,13.60
2015,07,29,01,02,13.60
2015,07,29,01,03,13.50
2015,07,29,01,04,13.50
2015,07,29,01,05,13.50
2015,07,29,01,06,13.50
2015,07,29,01,07,13.50
2015,07,29,01,08,13.50
2015,07,29,01,09,13.40
2015,07,29,01,10,13.40
2015,07,29,01,11,13.40
2015,07,29,01,12,13.40
2015,07,29,01,13,13.30
2015,07,29,01,14,13.30
2015,07,29,01,15,13.30
2015,07,29,01,16,13.30
2015,07,29,01,17,13.30
2015,07,29,01,18,13.30
2015,07,29,01,19,13.30
2015,07,29,01,20,13.30
2015,07,29,01,21,13.20
2015,07,29,01,22,13.20
2015,07,29,01,23,13.20
2015,07,29,01,24,13.20
2015,07,29,01,25,13.20
2015,07,29,01,26,13.20
2015,07,29,01,27,13.20
2015,07,29,01,28,13.20
2015,07,29,01,29,13.20
2015,07,29,01,30,13.10
2015,07,29,01,31,13.10
2015,07,29,01,32,13.10
2015,07,29,01,33,13.10
2015,07,29,01,34,13.10
2015,07,29,01,35,13.10
2015,07,29,01,36,13.10
2015,07,29,01,37,13.10
2015,07,29,01,38,13.10
2015,07,29,01,39,13.10
2015,07,29,01,40,13.10
2015,07,29,01,41,13.10
2015,07,29,01,42,13.10
2015,07,29,01,43,13.10
2015,07,29,01,44,13.10
2015,07,29,01,45,13.10
2015,07,29,01,46,13.10
2015,07,29,01,47,13.10
2015,07,29,01,48,13.10
2015,07,29,01,49,13.00
2015,07,29,01,50,13.00
2015,07,29,01,51,12.90
2015,07,29,01,52,12.90
2015,07,29,01,53,12.90
2015,07,29,01,54,12.90
2015,07,29,01,55,12.90
2015,07,29,01,56,12.80
2015,07,29,01,57,12.80
2015,07,29,01,58,12.80
2015,07,29,01,59,12.80
2015,07,29,02,00,12.80
2015,07,29,02,01,12.80
2015,07,29,02,02,12.80
2015,07,29,02,03,12.80
2015,07,29,02,04,12.80
2015,07,29,02,05,12.80
2015,07,29,02,06,12.80
2015,07,29,02,07,12.70
2015,07,29,02,08,12.70
2015,07,29,02,09,12.70
2015,07,29,02,10,12.70
2015,07,29,02,11,12.70
2015,07,29,02,12,12.60
2015,07,29,02,13,12.60
2015,07,29,02,14,12.60
2015,07,29,02,15,12.60
2015,07,29,02,16,12.60
2015,07,29,02,17,12.60
2015,07,29,02,18,12.60
2015,07,29,02,19,12.60
2015,07,29,02,20,12.60
2015,07,29,02,21,12.60
2015,07,29,02,22,12.60
2015,07,29,02,23,12.60
2015,07,29,02,24,12.60
2015,07,29,02,25,12.60
2015,07,29,02,26,12.60
2015,07,29,02,27,12.60
2015,07,29,02,28,12.60
2015,07,29,02,29,12.70
2015,07,29,02,30,12.70
2015,07,29,02,31,12.60
2015,07,29,02,32,12.60
2015,07,29,02,33,12.60
2015,07,29,02,34,12.60
2015,07,29,02,35,12.60
2015,07,29,02,36,12.50
2015,07,29,02,37,12.50
2015,07,29,02,38,12.50
2015,07,29,02,39,12.50
2015,07,29,02,40,12.40
2015,07,29,02,41,12.40
2015,07,29,02,42,12.40
2015,07,29,02,43,12.40
2015,07,29,02,44,12.40
2015,07,29,02,45,12.30
2015,07,29,02,46,12.30
2015,07,29,02,47,12.30
2015,07,29,02,48,12.30
2015,07,29,02,49,12.30
2015,07,29,02,50,12.30
2015,07,29,02,51,12.30
2015,07,29,02,52,12.20
2015,07,29,02,53,12.20
2015,07,29,02,54,12.20
2015,07,29,02,55,12.20
2015,07,29,02,56,12.20
2015,07,29,02,57,12.20
2015,07,29,02,58,12.20
2015,07,29,02,59,12.20
2015,07,29,03,00,12.20
2015,07,29,03,01,12.20
2015,07,29,03,02,12.20
2015,07,29,03,03,12.10
2015,07,29,03,04,12.10
2015,07,29,03,05,12.10
2015,07,29,03,06,12.10
2015,07,29,03,07,12.10
2015,07,29,03,08,12.10
2015,07,29,03,09,12.10
2015,07,29,03,10,12.10
2015,07,29,03,11,12.10
2015,07,29,03,12,12.10
2015,07,29,03,13,12.00
2015,07,29,03,14,12.00
2015,07,29,03,15,12.00
2015,07,29,03,16,12.00
2015,07,29,03,17,11.90
2015,07,29,03,18,11.90
2015,07,29,03,19,11.90
2015,07,29,03,20,11.90
2015,07,29,03,21,11.90
2015,07,29,03,22,11.90
2015,07,29,03,23,11.90
2015,07,29,03,24,11.90
2015,07,29,03,25,11.90
2015,07,29,03,26,11.90
2015,07,29,03,27,11.90
2015,07,29,03,28,11.90
2015,07,29,03,29,11.90
2015,07,29,03,30,11.90
2015,07,29,03,31,11.90
2015,07,29,03,32,11.80
2015,07,29,03,33,11.80
2015,07,29,03,34,11.80
2015,07,29,03,35,11.80
2015,07,29,03,36,11.80
2015,07,29,03,37,11.80
2015,07,29,03,38,11.80
2015,07,29,03,39,11.80
2015,07,29,03,40,11.80
2015,07,29,03,41,11.80
2015,07,29,03,42,11.80
2015,07,29,03,43,11.80
2015,07,29,03,44,11.80
2015,07,29,03,45,11.80
2015,07,29,03,46,11.80
2015,07,29,03,47,11.80
2015,07,29,03,48,11.80
2015,07,29,03,49,11.80
2015,07,29,03,50,11.80
2015,07,29,03,51,11.70
2015,07,29,03,52,11.70
2015,07,29,03,53,11.70
2015,07,29,03,54,11.70
2015,07,29,03,55,11.70
2015,07,29,03,56,11.70
2015,07,29,03,57,11.70
2015,07,29,03,58,11.70
2015,07,29,03,59,11.70
2015,07,29,04,00,11.70
2015,07,29,04,01,11.70
2015,07,29,04,02,11.70
2015,07,29,04,03,11.70
2015,07,29,04,04,11.70
2015,07,29,04,05,11.70
2015,07,29,04,06,11.60
2015,07,29,04,07,11.60
2015,07,29,04,08,11.60
2015,07,29,04,09,11.60
2015,07,29,04,10,11.60
2015,07,29,04,11,11.60
2015,07,29,04,12,11.60
2015,07,29,04,13,11.60
2015,07,29,04,14,11.60
2015,07,29,04,15,11.60
2015,07,29,04,16,11.60
2015,07,29,04,17,11.60
2015,07,29,04,18,11.60
2015,07,29,04,19,11.60
2015,07,29,04,20,11.60
2015,07,29,04,21,11.60
2015,07,29,04,22,11.60
2015,07,29,04,23,11.60
2015,07,29,04,24,11.60
2015,07,29,04,25,11.60
2015,07,29,04,26,11.60
2015,07,29,04,27,11.60
2015,07,29,04,28,11.60
2015,07,29,04,29,11.60
2015,07,29,04,30,11.60
2015,07,29,04,31,11.60
2015,07,29,04,32,11.60
2015,07,29,04,33,11.50
2015,07,29,04,34,11.50
2015,07,29,04,35,11.50
2015,07,29,04,36,11.50
2015,07,29,04,37,11.50
2015,07,29,04,38,11.40
2015,07,29,04,39,11.40
2015,07,29,04,40,11.40
2015,07,29,04,41,11.40
2015,07,29,04,42,11.40
2015,07,29,04,43,11.40
2015,07,29,04,44,11.40
2015,07,29,04,45,11.40
2015,07,29,04,46,11.30
2015,07,29,04,47,11.30
2015,07,29,04,48,11.30
2015,07,29,04,49,11.30
2015,07,29,04,50,11.30
2015,07,29,04,51,11.30
2015,07,29,04,52,11.30
2015,07,29,04,53,11.30
2015,07,29,04,54,11.30
2015,07,29,04,55,11.30
2015,07,29,04,56,11.30
2015,07,29,04,57,11.30
2015,07,29,04,58,11.20
2015,07,29,04,59,11.20
2015,07,29,05,00,11.20
2015,07,29,05,01,11.20
2015,07,29,05,02,11.20
2015,07,29,05,03,11.20
2015,07,29,05,04,11.20
2015,07,29,05,05,11.20
2015,07,29,05,06,11.20
2015,07,29,05,07,11.10
2015,07,29,05,08,11.10
2015,07,29,05,09,11.10
2015,07,29,05,10,11.10
2015,07,29,05,11,11.10
2015,07,29,05,12,11.10
2015,07,29,05,13,11.10
2015,07,29,05,14,11.10
2015,07,29,05,15,11.10
2015,07,29,05,16,11.10
2015,07,29,05,17,11.10
2015,07,29,05,18,11.10
2015,07,29,05,19,11.10
2015,07,29,05,20,11.10
2015,07,29,05,21,11.00
2015,07,29,05,22,11.00
2015,07,29,05,23,11.00
2015,07,29,05,24,11.00
2015,07,29,05,25,11.00
2015,07,29,05,26,11.00
2015,07,29,05,27,10.90
2015,07,29,05,28,11.00
2015,07,29,05,29,11.00
2015,07,29,05,30,11.00
2015,07,29,05,31,11.10
2015,07,29,05,32,11.10
2015,07,29,05,33,11.10
2015,07,29,05,34,11.10
2015,07,29,05,35,11.10
2015,07,29,05,36,11.10
2015,07,29,05,37,11.00
2015,07,29,05,38,11.00
2015,07,29,05,39,11.00
2015,07,29,05,40,11.00
2015,07,29,05,41,11.00
2015,07,29,05,42,10.90
2015,07,29,05,43,10.90
2015,07,29,05,44,10.90
2015,07,29,05,45,10.90
2015,07,29,05,46,10.90
2015,07,29,05,47,10.90
2015,07,29,05,48,10.90
2015,07,29,05,49,10.90
2015,07,29,05,50,10.90
2015,07,29,05,51,10.90
2015,07,29,05,52,10.90
2015,07,29,05,53,10.90
2015,07,29,05,54,10.90
2015,07,29,05,55,10.90
2015,07,29,05,56,10.90
2015,07,29,05,57,10.90
2015,07,29,05,58,10.90
2015,07,29,05,59,10.90
2015,07,29,06,00,10.90
2015,07,29,06,01,10.90
2015,07,29,06,02,10.90
2015,07,29,06,03,10.90
2015,07,29,06,04,10.90
2015,07,29,06,05,10.90
2015,07,29,06,06,10.90
2015,07,29,06,07,10.90
2015,07,29,06,08,10.90
2015,07,29,06,09,10.90
2015,07,29,06,10,10.90
2015,07,29,06,11,10.80
2015,07,29,06,12,10.80
2015,07,29,06,13,10.80
2015,07,29,06,14,10.80
2015,07,29,06,15,10.80
2015,07,29,06,16,10.80
2015,07,29,06,17,10.80
2015,07,29,06,18,10.80
2015,07,29,06,19,10.80
2015,07,29,06,20,10.80
2015,07,29,06,21,10.80
2015,07,29,06,22,10.80
2015,07,29,06,23,10.80
2015,07,29,06,24,10.80
2015,07,29,06,25,10.80
2015,07,29,06,26,10.80
2015,07,29,06,27,10.80
2015,07,29,06,28,10.80
2015,07,29,06,29,10.80
2015,07,29,06,30,10.80
2015,07,29,06,31,10.80
2015,07,29,06,32,10.80
2015,07,29,06,33,10.80
2015,07,29,06,34,10.90
2015,07,29,06,35,10.90
2015,07,29,06,36,10.90
2015,07,29,06,37,10.90
2015,07,29,06,38,10.90
2015,07,29,06,39,11.00
2015,07,29,06,40,11.00
2015,07,29,06,41,11.00
2015,07,29,06,42,11.00
2015,07,29,06,43,11.00
2015,07,29,06,44,11.10
2015,07,29,06,45,11.10
2015,07,29,06,46,11.10
2015,07,29,06,47,11.10
2015,07,29,06,48,11.10
2015,07,29,06,49,11.20
2015,07,29,06,50,11.20
2015,07,29,06,51,11.20
2015,07,29,06,52,11.20
2015,07,29,06,53,11.20
2015,07,29,06,54,11.20
2015,07,29,06,55,11.20
2015,07,29,06,56,11.20
2015,07,29,06,57,11.20
2015,07,29,06,58,11.20
2015,07,29,06,59,11.20
2015,07,29,07,00,11.30
2015,07,29,07,01,11.30
2015,07,29,07,02,11.30
2015,07,29,07,03,11.30
2015,07,29,07,04,11.30
2015,07,29,07,05,11.40
2015,07,29,07,06,11.40
2015,07,29,07,07,11.40
2015,07,29,07,08,11.50
2015,07,29,07,09,11.50
2015,07,29,07,10,11.60
2015,07,29,07,11,11.60
2015,07,29,07,12,11.70
2015,07,29,07,13,11.70
2015,07,29,07,14,11.80
2015,07,29,07,15,11.90
2015,07,29,07,16,12.00
2015,07,29,07,17,12.10
2015,07,29,07,18,12.20
2015,07,29,07,19,12.20
2015,07,29,07,20,12.30
2015,07,29,07,21,12.40
2015,07,29,07,22,12.50
2015,07,29,07,23,12.60
2015,07,29,07,24,12.70
2015,07,29,07,25,12.90
2015,07,29,07,26,13.00
2015,07,29,07,27,13.10
2015,07,29,07,28,13.20
2015,07,29,07,29,13.30
2015,07,29,07,30,13.40
2015,07,29,07,31,13.50
2015,07,29,07,32,13.60
2015,07,29,07,33,13.70
2015,07,29,07,34,13.80
2015,07,29,07,35,13.90
2015,07,29,07,36,14.00
2015,07,29,07,37,14.10
2015,07,29,07,38,14.10
2015,07,29,07,39,14.20
2015,07,29,07,40,14.20
2015,07,29,07,41,14.30
2015,07,29,07,42,14.30
2015,07,29,07,43,14.40
2015,07,29,07,44,14.40
2015,07,29,07,45,14.50
2015,07,29,07,46,14.60
2015,07,29,07,47,14.70
2015,07,29,07,48,14.70
2015,07,29,07,49,14.80
2015,07,29,07,50,14.80
2015,07,29,07,51,14.80
2015,07,29,07,52,14.90
2015,07,29,07,53,15.00
2015,07,29,07,54,15.10
2015,07,29,07,55,15.10
2015,07,29,07,56,15.20
2015,07,29,07,57,15.20
2015,07,29,07,58,15.30
2015,07,29,07,59,15.30
2015,07,29,08,00,15.40
2015,07,29,08,01,15.40
2015,07,29,08,02,15.50
2015,07,29,08,03,15.50
2015,07,29,08,04,15.60
2015,07,29,08,05,15.60
2015,07,29,08,06,15.70
2015,07,29,08,07,15.70
2015,07,29,08,08,15.70
2015,07,29,08,09,15.70
2015,07,29,08,10,15.80
2015,07,29,08,11,15.80
2015,07,29,08,12,15.80
2015,07,29,08,13,15.80
2015,07,29,08,14,15.80
2015,07,29,08,15,15.90
2015,07,29,08,16,15.90
2015,07,29,08,17,15.90
2015,07,29,08,18,16.00
2015,07,29,08,19,16.00
2015,07,29,08,20,16.10
2015,07,29,08,21,16.10
2015,07,29,08,22,16.20
2015,07,29,08,23,16.20
2015,07,29,08,24,16.30
2015,07,29,08,25,16.30
2015,07,29,08,26,16.40
2015,07,29,08,27,16.50
2015,07,29,08,28,16.50
2015,07,29,08,29,16.60
2015,07,29,08,30,16.70
2015,07,29,08,31,16.70
2015,07,29,08,32,16.80
2015,07,29,08,33,16.90
2015,07,29,08,34,16.90
2015,07,29,08,35,17.00
2015,07,29,08,36,17.10
2015,07,29,08,37,17.20
2015,07,29,08,38,17.20
2015,07,29,08,39,17.30
2015,07,29,08,40,17.30
2015,07,29,08,41,17.40
2015,07,29,08,42,17.40
2015,07,29,08,43,17.40
2015,07,29,08,44,17.40
2015,07,29,08,45,17.40
2015,07,29,08,46,17.50
2015,07,29,08,47,17.50
2015,07,29,08,48,17.60
2015,07,29,08,49,17.60
2015,07,29,08,50,17.70
2015,07,29,08,51,17.70
2015,07,29,08,52,17.80
2015,07,29,08,53,17.80
2015,07,29,08,54,17.80
2015,07,29,08,55,17.80
2015,07,29,08,56,17.80
2015,07,29,08,57,17.70
2015,07,29,08,58,17.70
2015,07,29,08,59,17.70
2015,07,29,09,00,17.70
2015,07,29,09,01,17.70
2015,07,29,09,02,17.80
2015,07,29,09,03,17.80
2015,07,29,09,04,17.80
2015,07,29,09,05,17.90
2015,07,29,09,06,17.90
2015,07,29,09,07,18.00
2015,07,29,09,08,18.10
2015,07,29,09,09,18.20
2015,07,29,09,10,18.20
2015,07,29,09,11,18.30
2015,07,29,09,12,18.40
2015,07,29,09,13,18.40
2015,07,29,09,14,18.50
2015,07,29,09,15,18.60
2015,07,29,09,16,18.60
2015,07,29,09,17,18.70
2015,07,29,09,18,18.70
2015,07,29,09,19,18.80
2015,07,29,09,20,18.80
2015,07,29,09,21,18.80
2015,07,29,09,22,18.90
2015,07,29,09,23,18.90
2015,07,29,09,24,18.90
2015,07,29,09,25,18.90
2015,07,29,09,26,18.90
2015,07,29,09,27,18.90
2015,07,29,09,28,18.90
2015,07,29,09,29,18.90
2015,07,29,09,30,19.00
2015,07,29,09,31,19.00
2015,07,29,09,32,19.00
2015,07,29,09,33,19.10
2015,07,29,09,34,19.10
2015,07,29,09,35,19.10
2015,07,29,09,36,19.20
2015,07,29,09,37,19.20
2015,07,29,09,38,19.30
2015,07,29,09,39,19.30
2015,07,29,09,40,19.40
2015,07,29,09,41,19.50
2015,07,29,09,42,19.50
2015,07,29,09,43,19.60
2015,07,29,09,44,19.60
2015,07,29,09,45,19.60
2015,07,29,09,46,19.60
2015,07,29,09,47,19.60
2015,07,29,09,48,19.60
2015,07,29,09,49,19.60
2015,07,29,09,50,19.60
2015,07,29,09,51,19.60
2015,07,29,09,52,19.70
2015,07,29,09,53,19.70
2015,07,29,09,54,19.70
2015,07,29,09,55,19.80
2015,07,29,09,56,19.90
2015,07,29,09,57,19.90
2015,07,29,09,58,19.90
2015,07,29,09,59,19.90
2015,07,29,10,00,19.90
2015,07,29,10,01,19.80
2015,07,29,10,02,19.80
2015,07,29,10,03,19.70
2015,07,29,10,04,19.70
2015,07,29,10,05,19.70
2015,07,29,10,06,19.60
2015,07,29,10,07,19.60
2015,07,29,10,08,19.60
2015,07,29,10,09,19.60
2015,07,29,10,10,19.70
2015,07,29,10,11,19.70
2015,07,29,10,12,19.70
2015,07,29,10,13,19.70
2015,07,29,10,14,19.80
2015,07,29,10,15,19.80
2015,07,29,10,16,19.80
2015,07,29,10,17,19.80
2015,07,29,10,18,19.90
2015,07,29,10,19,19.80
2015,07,29,10,20,19.80
2015,07,29,10,21,19.80
2015,07,29,10,22,19.90
2015,07,29,10,23,19.90
2015,07,29,10,24,19.80
2015,07,29,10,25,19.80
2015,07,29,10,26,19.80
2015,07,29,10,27,19.80
2015,07,29,10,28,19.90
2015,07,29,10,29,19.90
2015,07,29,10,30,19.90
2015,07,29,10,31,19.90
2015,07,29,10,32,20.00
2015,07,29,10,33,20.00
2015,07,29,10,34,20.00
2015,07,29,10,35,20.00
2015,07,29,10,36,20.00
2015,07,29,10,37,19.90
2015,07,29,10,38,19.80
2015,07,29,10,39,19.70
2015,07,29,10,40,19.60
2015,07,29,10,41,19.50
2015,07,29,10,42,19.40
2015,07,29,10,43,19.20
2015,07,29,10,44,19.20
2015,07,29,10,45,19.10
2015,07,29,10,46,19.10
2015,07,29,10,47,19.20
2015,07,29,10,48,19.20
2015,07,29,10,49,19.20
2015,07,29,10,50,19.30
2015,07,29,10,51,19.30
2015,07,29,10,52,19.30
2015,07,29,10,53,19.30
2015,07,29,10,54,19.30
2015,07,29,10,55,19.40
2015,07,29,10,56,19.50
2015,07,29,10,57,19.60
2015,07,29,10,58,19.70
2015,07,29,10,59,19.80
2015,07,29,11,00,19.80
2015,07,29,11,01,19.90
2015,07,29,11,02,19.90
2015,07,29,11,03,20.00
2015,07,29,11,04,20.10
2015,07,29,11,05,20.10
2015,07,29,11,06,20.10
2015,07,29,11,07,20.20
2015,07,29,11,08,20.20
2015,07,29,11,09,20.30
2015,07,29,11,10,20.30
2015,07,29,11,11,20.30
2015,07,29,11,12,20.40
2015,07,29,11,13,20.40
2015,07,29,11,14,20.50
2015,07,29,11,15,20.50
2015,07,29,11,16,20.50
2015,07,29,11,17,20.50
2015,07,29,11,18,20.40
2015,07,29,11,19,20.40
2015,07,29,11,20,20.40
2015,07,29,11,21,20.40
2015,07,29,11,22,20.30
2015,07,29,11,23,20.30
2015,07,29,11,24,20.30
2015,07,29,11,25,20.20
2015,07,29,11,26,20.10
2015,07,29,11,27,20.10
2015,07,29,11,28,20.00
2015,07,29,11,29,20.00
2015,07,29,11,30,20.00
2015,07,29,11,31,20.10
2015,07,29,11,32,20.10
2015,07,29,11,33,20.20
2015,07,29,11,34,20.30
2015,07,29,11,35,20.40
2015,07,29,11,36,20.50
2015,07,29,11,37,20.50
2015,07,29,11,38,20.60
2015,07,29,11,39,20.60
2015,07,29,11,40,20.70
2015,07,29,11,41,20.70
2015,07,29,11,42,20.80
2015,07,29,11,43,20.80
2015,07,29,11,44,20.80
2015,07,29,11,45,20.80
2015,07,29,11,46,20.80
2015,07,29,11,47,20.70
2015,07,29,11,48,20.70
2015,07,29,11,49,20.60
2015,07,29,11,50,20.60
2015,07,29,11,51,20.50
2015,07,29,11,52,20.40
2015,07,29,11,53,20.20
2015,07,29,11,54,20.10
2015,07,29,11,55,20.10
2015,07,29,11,56,20.10
2015,07,29,11,57,20.00
2015,07,29,11,58,20.00
2015,07,29,11,59,20.10
2015,07,29,12,00,20.10
2015,07,29,12,01,20.10
2015,07,29,12,02,20.00
2015,07,29,12,03,20.00
2015,07,29,12,04,19.90
2015,07,29,12,05,19.90
2015,07,29,12,06,19.80
2015,07,29,12,07,19.70
2015,07,29,12,08,19.70
2015,07,29,12,09,19.70
2015,07,29,12,10,19.60
2015,07,29,12,11,19.60
2015,07,29,12,12,19.50
2015,07,29,12,13,19.50
2015,07,29,12,14,19.50
2015,07,29,12,15,19.60
2015,07,29,12,16,19.60
2015,07,29,12,17,19.70
2015,07,29,12,18,19.80
2015,07,29,12,19,19.80
2015,07,29,12,20,19.80
2015,07,29,12,21,19.80
2015,07,29,12,22,19.80
2015,07,29,12,23,19.80
2015,07,29,12,24,19.90
2015,07,29,12,25,19.90
2015,07,29,12,26,20.00
2015,07,29,12,27,20.00
2015,07,29,12,28,20.00
2015,07,29,12,29,20.00
2015,07,29,12,30,20.00
2015,07,29,12,31,20.10
2015,07,29,12,32,20.10
2015,07,29,12,33,20.20
2015,07,29,12,34,20.30
2015,07,29,12,35,20.30
2015,07,29,12,36,20.40
2015,07,29,12,37,20.50
2015,07,29,12,38,20.60
2015,07,29,12,39,20.70
2015,07,29,12,40,20.80
2015,07,29,12,41,20.80
2015,07,29,12,42,20.90
2015,07,29,12,43,20.90
2015,07,29,12,44,21.00
2015,07,29,12,45,21.10
2015,07,29,12,46,21.10
2015,07,29,12,47,21.10
2015,07,29,12,48,21.20
2015,07,29,12,49,21.30
2015,07,29,12,50,21.30
2015,07,29,12,51,21.40
2015,07,29,12,52,21.50
2015,07,29,12,53,21.60
2015,07,29,12,54,21.70
2015,07,29,12,55,21.70
2015,07,29,12,56,21.80
2015,07,29,12,57,21.80
2015,07,29,12,58,21.80
2015,07,29,12,59,21.90
2015,07,29,13,00,21.90
2015,07,29,13,01,22.00
2015,07,29,13,02,22.00
2015,07,29,13,03,22.10
2015,07,29,13,04,22.10
2015,07,29,13,05,22.20
2015,07,29,13,06,22.20
2015,07,29,13,07,22.30
2015,07,29,13,08,22.30
2015,07,29,13,09,22.30
2015,07,29,13,10,22.40
2015,07,29,13,11,22.50
2015,07,29,13,12,22.50
2015,07,29,13,13,22.60
2015,07,29,13,14,22.70
2015,07,29,13,15,22.70
2015,07,29,13,16,22.80
2015,07,29,13,17,22.80
2015,07,29,13,18,22.80
2015,07,29,13,19,22.80
2015,07,29,13,20,22.90
2015,07,29,13,21,22.90
2015,07,29,13,22,22.90
2015,07,29,13,23,22.90
2015,07,29,13,24,22.90
2015,07,29,13,25,22.90
2015,07,29,13,26,23.00
2015,07,29,13,27,23.00
2015,07,29,13,28,23.00
2015,07,29,13,29,22.90
2015,07,29,13,30,22.90
2015,07,29,13,31,22.90
2015,07,29,13,32,22.90
2015,07,29,13,33,22.90
2015,07,29,13,34,23.00
2015,07,29,13,35,23.00
2015,07,29,13,36,23.10
2015,07,29,13,37,23.10
2015,07,29,13,38,23.20
2015,07,29,13,39,23.30
2015,07,29,13,40,23.30
2015,07,29,13,41,23.40
2015,07,29,13,42,23.40
2015,07,29,13,43,23.40
2015,07,29,13,44,23.30
2015,07,29,13,45,23.20
2015,07,29,13,46,23.10
2015,07,29,13,47,22.90
2015,07,29,13,48,22.70
2015,07,29,13,49,22.50
2015,07,29,13,50,22.30
2015,07,29,13,51,22.10
2015,07,29,13,52,22.10
2015,07,29,13,53,22.00
2015,07,29,13,54,21.90
2015,07,29,13,55,21.90
2015,07,29,13,56,21.90
2015,07,29,13,57,21.90
2015,07,29,13,58,21.90
2015,07,29,13,59,21.90
2015,07,29,14,00,21.90
2015,07,29,14,01,21.90
2015,07,29,14,02,21.90
2015,07,29,14,03,21.90
2015,07,29,14,04,22.00
2015,07,29,14,05,22.10
2015,07,29,14,06,22.20
2015,07,29,14,07,22.30
2015,07,29,14,08,22.40
2015,07,29,14,09,22.50
2015,07,29,14,10,22.60
2015,07,29,14,11,22.70
2015,07,29,14,12,22.80
2015,07,29,14,13,23.00
2015,07,29,14,14,23.10
2015,07,29,14,15,23.10
2015,07,29,14,16,23.00
2015,07,29,14,17,22.90
2015,07,29,14,18,22.90
2015,07,29,14,19,22.80
2015,07,29,14,20,22.70
2015,07,29,14,21,22.60
2015,07,29,14,22,22.60
2015,07,29,14,23,22.50
2015,07,29,14,24,22.40
2015,07,29,14,25,22.40
2015,07,29,14,26,22.40
2015,07,29,14,27,22.30
2015,07,29,14,28,22.30
2015,07,29,14,29,22.30
2015,07,29,14,30,22.20
2015,07,29,14,31,22.20
2015,07,29,14,32,22.20
2015,07,29,14,33,22.20
2015,07,29,14,34,22.20
2015,07,29,14,35,22.20
2015,07,29,14,36,22.20
2015,07,29,14,37,22.10
2015,07,29,14,38,22.10
2015,07,29,14,39,22.10
2015,07,29,14,40,22.10
2015,07,29,14,41,22.20
2015,07,29,14,42,22.20
2015,07,29,14,43,22.30
2015,07,29,14,44,22.30
2015,07,29,14,45,22.40
2015,07,29,14,46,22.50
2015,07,29,14,47,22.50
2015,07,29,14,48,22.60
2015,07,29,14,49,22.60
2015,07,29,14,50,22.60
2015,07,29,14,51,22.60
2015,07,29,14,52,22.60
2015,07,29,14,53,22.60
2015,07,29,14,54,22.70
2015,07,29,14,55,22.70
2015,07,29,14,56,22.80
2015,07,29,14,57,22.80
2015,07,29,14,58,22.80
2015,07,29,14,59,22.90
2015,07,29,15,00,22.90
2015,07,29,15,01,22.90
2015,07,29,15,02,23.00
2015,07,29,15,03,23.00
2015,07,29,15,04,23.10
2015,07,29,15,05,23.10
2015,07,29,15,06,23.20
2015,07,29,15,07,23.30
2015,07,29,15,08,23.30
2015,07,29,15,09,23.40
2015,07,29,15,10,23.50
2015,07,29,15,11,23.60
2015,07,29,15,12,23.70
2015,07,29,15,13,23.70
2015,07,29,15,14,23.90
2015,07,29,15,15,23.90
2015,07,29,15,16,24.00
2015,07,29,15,17,24.10
2015,07,29,15,18,24.10
2015,07,29,15,19,24.20
2015,07,29,15,20,24.20
2015,07,29,15,21,24.30
2015,07,29,15,22,24.30
2015,07,29,15,23,24.40
2015,07,29,15,24,24.50
2015,07,29,15,25,24.50
2015,07,29,15,26,24.60
2015,07,29,15,27,24.60
2015,07,29,15,28,24.70
2015,07,29,15,29,24.80
2015,07,29,15,30,24.90
2015,07,29,15,31,25.00
2015,07,29,15,32,25.10
2015,07,29,15,33,25.10
2015,07,29,15,34,25.20
2015,07,29,15,35,25.30
2015,07,29,15,36,25.30
2015,07,29,15,37,25.40
2015,07,29,15,38,25.40
2015,07,29,15,39,25.50
2015,07,29,15,40,25.50
2015,07,29,15,41,25.60
2015,07,29,15,42,25.60
2015,07,29,15,43,25.60
2015,07,29,15,44,25.60
2015,07,29,15,45,25.60
2015,07,29,15,46,25.60
2015,07,29,15,47,25.60
2015,07,29,15,48,25.60
2015,07,29,15,49,25.60
2015,07,29,15,50,25.60
2015,07,29,15,51,25.50
2015,07,29,15,52,25.40
2015,07,29,15,53,25.40
2015,07,29,15,54,25.30
2015,07,29,15,55,25.20
2015,07,29,15,56,25.10
2015,07,29,15,57,25.00
2015,07,29,15,58,24.90
2015,07,29,15,59,24.80
2015,07,29,16,00,24.70
2015,07,29,16,01,24.60
2015,07,29,16,02,24.50
2015,07,29,16,03,24.40
2015,07,29,16,04,24.40
2015,07,29,16,05,24.30
2015,07,29,16,06,24.20
2015,07,29,16,07,24.10
2015,07,29,16,08,24.00
2015,07,29,16,09,23.90
2015,07,29,16,10,23.80
2015,07,29,16,11,23.80
2015,07,29,16,12,23.80
2015,07,29,16,13,23.80
2015,07,29,16,14,23.90
2015,07,29,16,15,23.90
2015,07,29,16,16,24.00
2015,07,29,16,17,24.00
2015,07,29,16,18,24.10
2015,07,29,16,19,24.10
2015,07,29,16,20,24.10
2015,07,29,16,21,24.10
2015,07,29,16,22,24.20
2015,07,29,16,23,24.20
2015,07,29,16,24,24.30
2015,07,29,16,25,24.30
2015,07,29,16,26,24.40
2015,07,29,16,27,24.40
2015,07,29,16,28,24.50
2015,07,29,16,29,24.50
2015,07,29,16,30,24.60
2015,07,29,16,31,24.60
2015,07,29,16,32,24.60
2015,07,29,16,33,24.70
2015,07,29,16,34,24.70
2015,07,29,16,35,24.80
2015,07,29,16,36,24.80
2015,07,29,16,37,24.80
2015,07,29,16,38,24.80
2015,07,29,16,39,24.80
2015,07,29,16,40,24.80
2015,07,29,16,41,24.80
2015,07,29,16,42,24.90
2015,07,29,16,43,24.90
2015,07,29,16,44,25.00
2015,07,29,16,45,25.00
2015,07,29,16,46,25.10
2015,07,29,16,47,25.10
2015,07,29,16,48,25.10
2015,07,29,16,49,25.20
2015,07,29,16,50,25.20
2015,07,29,16,51,25.30
2015,07,29,16,52,25.30
2015,07,29,16,53,25.40
2015,07,29,16,54,25.40
2015,07,29,16,55,25.40
2015,07,29,16,56,25.40
2015,07,29,16,57,25.50
2015,07,29,16,58,25.50
2015,07,29,16,59,25.60
2015,07,29,17,00,25.60
2015,07,29,17,01,25.70
2015,07,29,17,02,25.70
2015,07,29,17,03,25.80
2015,07,29,17,04,25.80
2015,07,29,17,05,25.90
2015,07,29,17,06,25.90
2015,07,29,17,07,25.80
2015,07,29,17,08,25.80
2015,07,29,17,09,25.80
2015,07,29,17,10,25.80
2015,07,29,17,11,25.80
2015,07,29,17,12,25.90
2015,07,29,17,13,25.90
2015,07,29,17,14,25.90
2015,07,29,17,15,25.90
2015,07,29,17,16,25.90
2015,07,29,17,17,25.90
2015,07,29,17,18,25.90
2015,07,29,17,19,25.90